Regional Weather Roundup
Issued by NWS State College, PA

Home | Current Version | Previous Version | Text Only | Print | Product List | Glossary On
Versions: 1 2 3 4 5 6 7 8 9 10 11 12 13 14 15 16 17 18 19 20 21 22 23 24 25 26 27 28 29 30 31 32 33 34 35 36 37 38 39 40 41 42 43 44 45 46 47 48 49 50
000
ASUS41 KCTP 241503
RWRCTP

REGIONAL WEATHER ROUNDUP
NATIONAL WEATHER SERVICE STATE COLLEGE PA
1100 AM EDT WED AUG 24 2016

Note: "fair" indicates few or no clouds below 12,000 feet with no
significant weather and/or obstructions to visibility.

* = STATION THAT DOES NOT REPORT PRECIPITATION /E.G. RAIN...SNOW...ETC/
    THUNDER OR FOG.

PAZ002>004-007>009-013>016-020>023-029>032-241600-
WESTERN PENNSYLVANIA

CITY           SKY/WX    TMP DP  RH WIND       PRES   REMARKS
ERIE           SUNNY     79  62  56 S13       30.19F
MEADVILLE      SUNNY     74  60  61 SW9       30.23F
FRANKLIN*      SUNNY     73  61  64 S8        30.26F
NEW CASTLE     FAIR      76  64  66 VRB5      30.24F
BEAVER COUNTY  SUNNY     75  63  64 S6        30.25
BUTLER*        NOT AVBL
PITTSBURGH INT PTSUNNY   76  63  64 S6        30.25S
PITTSBURGH     SUNNY     75  63  66 VRB6      30.25F
INDIANA*       MOSUNNY   77  66  69 S8        30.30S
LATROBE        SUNNY     77  66  69 SW13      30.27F
WASHINGTON CO* PTSUNNY   73  64  73 SW5       30.26F
$$

PAZ004>006-010>012-017>019-024>028-033>037-041-042-045-046-049>053-241600-
CENTRAL PENNSYLVANIA

CITY           SKY/WX    TMP DP  RH WIND       PRES   REMARKS
BRADFORD       SUNNY     73  61  65 SW12      30.28F
DUBOIS         MOSUNNY   75  62  64 SW7       30.28F
CLEARFIELD     SUNNY     74  63  68 CALM      30.29F
JOHNSTOWN      SUNNY     74  62  66 SW9       30.32S
ALTOONA        SUNNY     77  66  68 SW3       30.31S
STATE COLLEGE  SUNNY     72  64  78 S3        30.29F
WILLIAMSPORT   SUNNY     73  62  68 VRB3      30.27F
SELINSGROVE    SUNNY     76  66  71 CALM      30.29F
FT INDIANTOWN  SUNNY     75  62  64 CALM      30.29F
CAPITAL CITY   SUNNY     78  63  59 NE5       30.28F
HARRISBURG     PTSUNNY   79  65  62 CALM      30.27F
YORK           SUNNY     79  62  56 VRB5      30.29F
$$

PAZ038>040-043-044-047-048-054-055-060>062-067>071-241600-
EASTERN PENNSYLVANIA

CITY           SKY/WX    TMP DP  RH WIND       PRES   REMARKS
SCRANTON       SUNNY     76  62  62 SW6       30.29F
MOUNT POCONO   SUNNY     73  57  57 VRB6      30.33F
ALLENTOWN      SUNNY     77  62  59 CALM      30.29F
QUAKERTOWN*    SUNNY     79  63  57 CALM      30.30F
READING        SUNNY     79  60  52 SW7       30.28F
LANCASTER      SUNNY     79  64  60 SW8       30.29F
COATESVILLE    SUNNY     77  61  57 VRB5      30.32F
POTTSTOWN      SUNNY     78  63  59 VRB5      30.30F
BLUE BELL      SUNNY     77  61  57 SW3       30.29F
DOYLESTOWN     SUNNY     81  61  50 SW6       30.29S
WILLOW GROVE   NOT AVBL
NORTH PHILA    SUNNY     81  62  52 W3        30.31F
PHILADELPHIA   MOSUNNY   80  63  55 SW7       30.29F
$$



USA.gov is the U.S. government's official web portal to all federal, state and local government web resources and services.